Location: Peterborough
(44.3091°N, 78.3197°W)
Time: 04:08:53
(UTC-04:00)

S-56A Canister/Altair - Pass Details

Date: 29 March 2023
Orbit: 639 x 2492 km, 38.9° (Epoch: 08 June)

Event Time Altitude Azimuth Distance (km) Brightness Sun altitude
Rises 17:39:24 0° 211° (SSW) 4,231 12.0 19.9°
Reaches altitude 10° 17:42:14 10° 202° (SSW) 3,506 11.5 19.5°
Maximum altitude 17:50:21 34° 141° (SE) 2,680 10.2 18.0°
Drops below altitude 10° 18:01:23 10° 84° (E) 4,808 11.0 16.1°
Sets 18:06:01 0° 77° (ENE) 5,999 11.4 15.3°
